Location: Aalen
(48.8330°N, 10.1000°E)
Time: 04:08:19
(UTC+01:00)

Envisat - Pass Details

Date: 08 December 2022
Orbit: 763 x 765 km, 98.2° (Epoch: 28 January)

Event Time Altitude Azimuth Distance (km) Brightness Sun altitude
Rises 03:52:41 0° 21° (NNE) 3,245 6.6 -39.5°
Reaches altitude 10° 03:55:13 10° 31° (NNE) 2,314 5.8 -39.1°
Enters shadow 03:55:52 13° 34° (NE) 2,092 5.6 -39.0°
